Location: *
(18.5200°S, 46.4500°E)
Time: 20:26:12
(UTC+00:00)

Cosmos 1980 Rocket - Pass Details

Date: 19 July 2019
Orbit: 830 x 849 km, 71.0° (Epoch: 25 August)

Event Time Altitude Azimuth Distance (km) Brightness Sun altitude
Rises 15:20:39 0° 212° (SSW) 3,422 5.5 -11.0°
Reaches altitude 10° 15:23:20 10° 221° (SW) 2,478 4.9 -11.6°
Maximum altitude 15:28:20 32° 283° (WNW) 1,403 4.2 -12.7°
Drops below altitude 10° 15:33:17 10° 345° (NNW) 2,446 5.1 -13.8°
Sets 15:35:56 0° 355° (N) 3,371 5.6 -14.4°
